Terminal Aerodrome Forecast
Issued by NWS Billings, MT

Home | Current Version | Previous Version | Text Only | Print | Product List | Glossary Off
Versions: 1 2 3 4 5 6 7 8 9 10 11 12 13 14 15 16 17 18 19 20 21 22 23 24 25 26 27

000
FTUS45 KBYZ 250538
TAFMLS
TAF
KMLS 250538Z 2506/2606 24010KT P6SM SCT070 BKN250
     FM251300 26014KT 4SM -SHSN BKN050 OVC100
     FM252000 29015KT P6SM BKN025 OVC040=

USA.gov is the U.S. government's official web portal to all federal, state and local government web resources and services.